Location: Carrières
(48.9495°N, 2.0407°E)
Time: 19:54:53
(UTC+00:00)

Altair - Pass Details

Date: 28 April 2024
Orbit: 1502 x 1682 km, 47.2° (Epoch: 21 May)

Event Time Altitude Azimuth Distance (km) Brightness Sun altitude
Rises 22:20:18 0° 289° (WNW) 4,889 10.7 -23.5°
Reaches altitude 10° 22:23:39 10° 283° (WNW) 3,878 10.0 -23.7°
Maximum altitude 22:32:48 45° 216° (SW) 2,065 7.9 -24.3°
Enters shadow 22:35:25 38° 179° (S) 2,256 7.8 -24.4°
